GFSFLT2_con_3kmhel_144.txt.gz
Helicity
161 158 156 132 118 112 94 83 81 68 59 63 68 74 69 68 69 75 78 72 95 99 105 100 93 71 80
188 171 143 132 117 115 106 100 93 71 56 62 58 58 60 59 66 77 68 62 58 72 81 84 75 80 66
229 185 152 145 135 125 118 110 101 62 60 51 55 53 65 77 80 63 53 61 54 55 58 75 80 57 67
260 223 184 149 162 145 145 138 126 97 72 68 58 54 84 77 54 58 49 46 47 49 55 65 66 65 67
278 266 246 200 189 155 179 162 137 124 95 106 127 116 97 72 57 51 52 43 40 51 62 67 70 63 66
273 278 224 224 213 203 207 180 128 98 96 121 145 119 122 117 44 34 39 44 48 50 51 53 54 49 51
263 283 232 253 257 232 211 210 182 154 147 99 116 117 153 130 47 43 37 41 40 41 37 41 50 54 56
271 221 249 243 221 236 215 204 180 142 146 142 127 132 124 118 53 50 39 42 40 39 46 48 54 52 52
143 147 160 135 181 250 237 205 171 149 164 163 156 143 99 95 98 59 74 73 77 75 40 38 44 48 47
180 150 146 177 139 187 239 248 173 151 160 170 157 95 20 37 61 83 137 94 63 42 34 39 41 44 46
192 210 231 235 219 218 242 201 183 189 211 219 171 129 112 86 58 64 83 88 73 61 45 47 44 45 62
230 232 220 231 231 211 191 184 179 160 177 203 157 124 120 73 45 54 83 111 117 128 125 84 52 47 47
233 216 230 218 215 211 178 157 157 153 159 175 173 140 125 88 58 62 47 71 88 123 123 117 113 118 98
236 236 249 246 204 202 177 179 177 142 144 147 142 136 104 97 84 71 74 75 89 109 122 122 123 119 113
221 216 220 212 193 196 183 196 175 155 153 145 125 119 127 109 109 118 95 95 118 121 96 91 88 105 128
229 219 210 198 179 189 194 177 162 139 135 138 141 138 106 101 109 121 110 98 96 102 101 101 87 111 144
202 202 193 183 137 181 174 162 146 136 132 138 148 145 98 94 114 79 151 132 134 145 163 167 148 140 143

GFSFLT2_con_3kmhel_147.txt.gz
Helicity
159 165 161 136 133 132 125 113 109 80 74 69 61 52 51 47 50 54 51 90 81 81 79 85 89 97 74
168 175 164 144 141 137 129 133 119 102 88 80 67 56 47 44 41 50 66 67 63 70 74 84 83 76 77
227 202 175 170 147 133 126 129 136 110 91 80 65 48 47 50 70 82 87 70 51 55 61 75 72 85 64
271 227 206 163 175 152 148 151 154 146 118 98 83 62 47 66 87 77 63 57 47 44 48 46 72 83 64
317 285 245 238 224 189 187 173 133 147 141 147 135 104 87 76 77 67 50 50 44 44 42 57 62 81 83
336 336 245 239 194 185 193 187 170 146 158 152 155 120 92 104 82 58 40 48 46 38 53 58 63 64 65
331 319 244 201 180 171 201 199 177 145 142 126 139 109 94 111 81 54 46 47 48 47 54 51 49 48 61
309 254 217 162 208 175 173 172 192 158 177 165 116 85 88 101 80 88 71 50 46 48 46 40 49 59 59
259 248 152 127 169 217 241 216 188 167 183 187 119 99 101 100 105 107 93 72 61 63 106 87 49 45 51
261 217 148 140 107 202 207 227 210 189 163 178 110 114 72 71 118 125 113 94 93 65 67 56 50 56 51
226 202 194 199 190 179 216 221 220 214 193 211 171 135 148 128 106 95 79 77 67 58 50 44 44 47 52
244 220 201 189 178 174 187 228 218 186 148 190 179 149 153 114 79 58 64 66 84 74 73 66 53 44 31
225 207 214 164 163 204 215 208 184 188 173 191 194 163 152 124 80 45 53 66 79 94 98 109 102 90 67
212 182 171 183 185 194 205 201 194 163 143 138 148 148 147 122 87 57 60 90 73 73 84 109 109 95 87
208 188 177 168 181 205 195 199 180 149 127 141 136 131 135 111 70 73 81 87 89 89 79 94 97 92 97
202 185 165 174 164 191 184 167 146 124 120 120 147 152 129 78 86 90 85 84 66 55 59 80 93 92 89
168 174 172 199 156 163 162 169 128 119 113 132 138 123 71 39 57 46 84 76 60 67 77 101 100 101 106

GFSFLT2_con_3kmhel_150.txt.gz
Helicity
148 134 117 118 119 120 107 103 105 78 75 73 69 70 71 64 66 67 60 52 78 90 79 84 78 91 99
165 170 129 115 126 130 130 132 122 97 86 81 78 79 77 71 71 69 61 62 85 91 73 69 73 83 100
241 208 184 160 143 132 134 127 126 106 91 81 82 76 74 72 70 69 80 107 113 70 60 67 73 73 73
275 258 224 195 172 169 175 126 121 125 119 111 106 87 82 77 73 76 107 91 77 70 61 62 66 63 77
330 296 279 264 274 227 186 160 145 152 144 136 136 138 123 83 79 81 79 69 70 65 64 62 55 54 66
337 314 272 270 232 254 219 217 189 127 147 133 182 141 131 126 101 84 75 72 67 60 60 54 52 62 68
296 290 256 264 256 251 230 197 182 187 160 148 145 136 118 123 92 81 82 81 74 68 56 44 60 63 62
275 255 245 242 257 259 191 160 169 179 200 181 127 123 122 120 84 81 81 77 83 74 66 56 58 54 42
185 192 205 197 237 274 264 229 235 200 170 170 145 135 131 122 110 72 89 92 93 81 69 54 71 76 77
226 197 203 193 136 253 240 244 223 209 183 229 146 155 153 117 105 86 96 114 128 108 73 73 88 96 71
239 251 243 257 282 263 225 275 259 228 204 203 190 177 185 142 79 88 98 109 104 90 62 59 55 57 66
228 264 276 326 292 236 186 233 217 178 176 213 240 182 172 117 106 87 76 94 99 82 76 74 56 48 43
300 255 247 226 200 196 166 138 150 169 173 229 237 201 181 155 127 98 87 81 79 84 87 85 74 78 74
242 241 236 250 161 208 197 195 191 189 160 181 205 191 174 151 115 103 105 103 73 73 77 93 86 79 75
201 298 287 268 170 162 143 190 173 181 192 194 165 159 147 121 120 118 101 83 81 87 75 70 75 72 74
243 202 221 235 194 130 162 159 177 174 156 173 155 151 148 110 105 108 100 97 82 71 73 75 66 75 74
245 196 189 187 148 135 166 160 157 150 135 163 166 137 104 92 89 31 68 58 59 66 73 79 74 81 87

GFSFLT2_con_3kmhel_153.txt.gz
Helicity
230 224 262 230 184 180 160 154 141 70 55 56 51 51 55 65 71 72 74 67 58 48 73 70 66 75 76
261 257 251 258 239 203 187 176 159 104 70 63 57 52 54 62 69 75 79 76 64 61 77 72 69 75 81
288 270 265 266 264 223 220 214 198 147 90 79 69 61 60 70 74 80 83 83 72 76 86 61 59 71 74
307 300 290 265 268 279 260 239 214 185 127 106 93 79 71 73 75 78 90 82 99 83 76 68 60 62 66
326 313 338 340 341 301 288 262 237 204 194 189 166 137 138 78 74 82 88 84 100 83 80 75 65 61 62
325 326 314 335 303 314 315 322 269 214 214 212 176 155 166 150 98 89 93 88 86 86 81 71 70 66 54
265 303 277 287 270 292 319 349 297 269 227 233 194 173 167 139 83 94 103 89 87 84 79 73 70 62 60
191 217 236 223 242 272 290 282 263 237 268 249 225 203 169 169 79 73 89 94 88 85 79 70 75 56 79
90 93 92 115 162 262 321 321 309 311 243 222 267 224 151 180 165 85 93 88 86 97 82 76 65 70 85
129 129 125 134 108 231 302 335 338 280 239 280 275 267 250 179 145 159 168 121 102 99 90 86 61 159 164
113 126 134 176 199 205 289 368 369 282 291 194 258 266 269 230 178 156 155 141 121 110 74 82 77 86 131
113 134 151 169 215 209 218 311 291 265 227 286 304 283 260 234 207 167 146 142 141 142 138 101 84 66 52
152 145 137 148 176 219 236 293 304 191 196 302 276 249 222 182 170 165 142 153 146 142 134 120 105 100 100
153 132 127 158 233 356 271 223 170 186 119 170 238 245 229 208 192 175 171 161 113 117 119 106 105 105 98
143 117 149 150 243 320 342 237 145 145 156 136 176 192 165 179 185 160 150 145 145 135 118 109 87 87 83
133 110 113 142 249 278 245 188 139 122 108 176 188 194 184 159 129 137 153 146 136 127 115 81 61 83 86
86 110 116 128 222 206 228 167 124 88 131 229 243 216 176 130 128 48 120 110 106 94 82 85 68 75 87

GFSFLT2_con_3kmhel_156.txt.gz
Helicity
232 186 213 245 266 289 273 256 232 108 84 75 76 72 71 62 54 54 54 55 50 61 59 60 73 78 70
207 235 237 231 268 320 315 303 286 180 97 87 80 76 75 67 54 55 59 59 60 71 70 56 78 77 67
250 240 254 281 247 268 320 301 310 231 133 103 94 92 90 75 61 58 63 63 68 74 61 59 82 71 68
277 263 260 259 266 251 245 311 315 290 228 184 154 129 96 78 61 68 78 68 69 70 53 68 79 71 68
263 236 230 214 224 186 208 216 265 292 270 247 228 207 209 115 113 98 81 76 82 80 76 82 76 70 70
224 227 197 190 171 183 189 189 226 234 251 272 258 240 220 217 118 78 74 71 83 83 89 75 78 72 74
158 157 149 156 153 157 174 195 234 235 213 217 226 208 226 185 92 62 63 81 86 81 80 79 71 68 71
152 147 141 126 120 134 148 178 233 232 271 251 287 269 292 225 88 57 60 66 75 80 76 71 68 69 72
81 76 64 55 55 96 146 177 219 269 319 307 274 258 308 249 205 63 50 54 67 70 70 70 72 72 94
108 98 85 69 34 78 120 138 160 175 242 309 275 333 288 285 230 202 178 90 99 88 73 88 69 140 168
110 121 144 143 151 143 149 152 176 223 245 241 279 290 340 226 185 208 253 217 179 140 80 71 80 101 159
112 123 135 130 151 157 146 154 177 208 212 266 452 368 300 268 229 221 201 176 186 157 132 99 76 83 89
122 150 158 159 139 136 117 134 162 185 254 341 476 386 265 256 221 202 210 162 161 161 164 144 150 150 138
131 142 115 112 116 114 126 91 183 244 260 211 239 293 242 232 176 200 182 179 143 163 169 166 167 151 132
164 132 131 111 103 107 123 112 175 194 193 140 167 214 179 180 176 174 204 205 178 165 155 142 160 131 107
153 140 146 99 91 90 101 159 150 214 164 145 112 119 112 134 150 171 172 159 168 165 151 130 105 98 84
142 166 104 83 72 79 -2 120 135 175 192 129 120 93 104 108 122 96 156 190 172 145 127 124 86 68 84

GFSFLT2_con_3kmhel_159.txt.gz
Helicity
210 173 192 175 176 203 200 214 238 135 106 93 92 84 73 73 76 76 74 69 61 55 53 52 51 44 48
184 201 213 204 211 206 205 204 220 193 135 123 114 105 87 79 77 80 82 76 70 62 60 60 58 53 57
185 174 185 188 177 185 188 182 205 170 131 128 122 116 111 100 87 78 84 79 74 70 71 71 69 62 69
206 170 161 127 160 128 129 149 178 160 145 146 144 148 133 125 111 104 101 94 68 67 73 75 77 76 80
175 151 133 124 128 113 104 79 87 137 138 201 229 209 189 143 132 108 120 109 83 64 69 73 74 69 82
161 162 143 133 99 90 97 108 87 79 71 73 160 191 215 209 140 112 106 95 70 60 70 80 77 87 92
168 152 141 117 115 108 102 102 109 105 94 99 142 160 213 201 63 53 56 69 65 69 71 75 77 93 86
145 132 116 101 97 104 98 93 94 91 88 129 102 157 185 242 112 52 45 67 60 65 73 72 80 94 94
93 76 59 48 50 97 111 110 120 105 97 180 141 130 154 214 273 100 69 47 65 52 59 74 98 101 108
122 108 83 84 44 71 114 129 138 141 143 179 186 196 144 205 216 243 230 64 41 58 61 73 84 158 164
135 123 118 113 116 123 128 155 141 140 105 121 183 184 239 250 235 138 176 208 131 128 83 82 81 110 156
127 111 111 117 113 119 117 124 136 120 105 113 160 165 167 201 284 246 203 172 134 189 191 135 90 78 67
105 111 110 126 118 111 89 106 104 94 127 104 102 160 250 300 320 321 149 153 160 150 161 137 122 142 149
109 104 115 139 144 150 116 113 88 80 72 110 131 137 184 278 330 261 193 132 117 96 110 130 135 148 154
131 130 132 153 153 160 109 81 104 81 65 85 166 83 74 230 202 195 186 124 110 116 141 123 129 136 147
155 154 170 150 138 81 64 94 91 73 34 106 134 92 49 43 110 134 125 117 147 168 174 162 133 137 124
163 174 128 90 76 46 62 89 73 48 55 139 171 118 61 56 66 71 130 120 154 158 162 159 126 109 102

GFSFLT2_con_3kmhel_165.txt.gz
Helicity
185 141 127 118 103 105 97 109 121 103 143 171 187 194 183 165 148 134 123 124 117 115 114 107 97 89 77
134 142 134 123 128 139 123 107 108 88 105 126 144 148 155 168 166 150 146 123 110 103 93 104 107 103 99
135 134 129 123 130 136 136 148 149 103 87 99 116 132 137 133 146 163 174 148 137 127 123 101 91 104 111
152 130 115 89 124 123 125 138 141 126 114 100 91 121 130 140 127 149 155 152 164 165 133 122 116 102 99
163 157 144 126 115 112 125 107 105 113 118 134 147 145 140 130 121 105 119 145 159 168 167 149 116 116 100
180 186 172 168 162 147 141 146 134 111 93 117 108 119 124 122 91 91 99 109 130 140 160 166 173 113 119
237 215 209 183 145 158 153 159 159 145 117 106 101 100 102 103 43 53 55 70 60 84 103 138 124 148 100
186 173 150 124 117 119 132 146 160 126 110 98 88 102 108 116 44 20 21 41 79 67 55 60 106 55 112
73 59 48 40 71 97 121 143 115 61 80 96 100 82 86 116 122 30 22 35 90 73 85 74 70 71 53
106 87 74 70 27 79 109 125 113 87 78 83 79 73 50 113 108 85 110 62 37 49 88 97 85 99 117
111 114 122 111 116 133 135 145 131 132 101 104 130 102 148 122 67 85 115 94 134 144 72 72 79 82 93
100 101 113 114 115 137 147 141 132 114 87 95 130 128 127 134 112 69 76 100 104 89 102 94 69 80 79
101 92 101 114 102 89 81 99 110 122 133 148 163 113 119 128 132 79 46 100 100 101 121 120 88 109 103
110 112 110 102 99 111 121 115 119 148 99 139 121 130 153 136 128 50 -26 74 84 130 147 91 84 95 199
120 117 127 124 139 130 117 114 102 73 69 76 103 133 114 4 -16 15 54 120 143 146 106 64 51 59 54
139 127 111 112 100 117 93 64 67 38 74 82 106 72 83 -17 25 -8 33 50 45 100 56 6 10 32 66
160 130 70 65 39 43 -16 17 42 40 66 66 50 -0 -11 -22 -0 52 -36 -11 31 25 17 20 20 41 65

GFSFLT2_con_3kmhel_171.txt.gz
Helicity
126 100 86 89 94 105 111 115 104 87 104 108 106 107 117 126 138 140 150 149 146 142 155 155 115 99 97
127 106 92 72 62 61 79 98 106 94 98 104 115 103 117 144 153 150 147 155 156 152 147 147 170 164 115
138 115 78 53 32 17 16 41 47 44 67 88 78 109 122 118 121 144 182 179 170 138 156 165 168 162 140
141 126 121 109 96 88 105 98 83 58 40 23 61 80 77 97 110 115 121 129 139 134 130 128 141 140 141
166 151 130 119 118 129 130 104 96 82 83 69 39 65 77 74 89 105 105 116 121 122 110 112 104 103 110
173 157 135 138 116 116 114 132 134 79 74 69 42 76 58 86 60 63 80 88 96 93 109 114 115 91 104
120 79 81 70 84 96 115 106 80 45 45 73 70 72 57 46 9 19 29 46 59 63 64 62 68 78 72
48 45 67 76 68 91 98 104 103 91 79 83 56 63 42 46 20 -4 8 30 39 55 47 48 75 82 68
53 65 58 51 72 111 114 111 92 73 61 76 46 47 60 57 28 13 29 49 51 47 51 60 54 49 58
109 97 96 91 84 119 120 112 96 61 79 86 82 72 40 42 54 59 65 40 28 34 41 52 58 86 73
128 115 91 88 96 96 92 108 110 115 91 93 107 93 104 49 39 67 63 75 65 55 33 39 47 67 66
122 113 110 105 101 91 82 97 116 117 87 74 99 92 84 74 46 61 70 61 50 61 52 40 53 58 58
116 114 111 109 103 99 85 71 76 88 84 83 81 85 86 82 104 107 25 43 30 22 22 26 38 47 55
106 108 115 112 102 93 86 76 42 30 42 23 32 45 57 71 82 75 31 33 33 28 54 34 21 21 29
101 99 93 85 78 67 63 60 65 51 34 10 40 65 76 85 75 56 33 30 12 34 31 -6 21 35 41
87 83 84 62 55 56 61 70 67 64 61 44 32 2 1 18 35 51 32 24 13 11 -18 16 11 -26 -48
86 82 63 64 56 66 60 57 58 54 60 60 36 30 24 24 15 25 65 39 30 21 35 36 20 -10 -13

GFSFLT2_con_3kmhel_174.txt.gz
Helicity
126 125 128 113 111 108 112 124 137 133 137 122 101 111 126 139 133 153 176 181 179 165 161 163 166 165 184
129 139 128 140 96 68 51 75 82 85 74 75 104 135 132 122 143 157 176 181 198 221 219 211 155 135 156
131 154 136 63 55 75 81 87 77 41 22 28 54 67 82 92 105 101 111 139 163 199 228 210 207 185 196
141 101 87 91 99 111 123 92 83 63 55 38 42 44 59 74 91 87 99 113 109 96 101 97 100 112 117
83 92 94 113 129 129 116 100 79 69 77 69 55 56 51 32 42 45 63 69 68 69 70 91 99 88 89
113 115 110 122 129 130 127 139 124 82 85 79 54 51 43 37 20 19 25 32 31 31 38 36 45 49 53
115 112 111 108 101 109 150 157 131 97 94 89 54 52 42 34 9 10 11 18 33 35 37 46 45 34 29
95 76 80 93 103 138 152 140 141 111 98 83 48 47 48 52 14 18 34 52 65 75 62 54 46 61 49
37 70 69 60 91 139 131 129 114 90 81 75 62 54 56 59 53 36 42 29 49 46 52 59 70 77 77
102 90 84 70 55 100 138 126 121 101 66 74 67 63 45 38 55 32 49 30 27 34 28 24 28 57 64
98 95 82 86 94 102 101 119 113 116 66 74 87 59 60 44 50 53 50 64 62 42 22 25 32 45 63
107 98 102 92 94 96 91 98 121 119 70 54 101 83 53 65 58 59 63 47 13 8 19 4 -0 2 25
100 104 91 87 79 89 80 65 61 64 54 41 66 70 66 72 62 70 55 51 28 24 26 31 18 19 22
105 95 77 74 75 73 64 65 64 65 52 54 57 61 63 53 56 71 39 53 14 22 28 7 34 36 27
92 78 68 68 67 66 72 61 51 43 46 44 39 49 71 77 72 57 48 29 24 19 4 22 32 26 3
83 73 71 69 67 64 59 54 43 43 41 42 28 6 7 28 47 48 30 27 24 32 37 44 34 32 14
84 80 71 47 49 61 59 54 44 33 34 35 16 20 11 5 13 16 18 14 14 25 32 33 31 36 15

GFSFLT2_con_3kmhel_180.txt.gz
Helicity
88 77 89 89 85 89 97 90 74 55 93 85 77 82 82 97 125 122 110 109 103 128 108 100 97 122 167
77 86 85 106 103 94 66 62 100 94 57 53 54 67 53 96 107 95 91 87 83 64 30 26 22 32 63
76 103 106 98 100 97 100 108 103 65 60 59 54 47 57 75 88 100 85 67 54 60 44 32 23 9 10
82 93 99 99 121 131 132 123 98 75 72 55 39 47 41 54 69 70 55 34 24 21 14 11 6 5 5
104 119 112 124 137 136 148 130 83 86 104 87 91 77 78 54 54 41 37 26 11 19 21 26 33 29 21
99 128 134 149 154 146 161 128 112 90 117 95 84 93 102 101 31 21 20 28 38 49 68 54 48 41 31
139 144 150 143 145 141 131 138 117 106 97 116 105 97 110 87 39 7 12 33 20 18 27 30 22 15 12
149 140 135 106 116 127 140 131 113 108 117 127 83 103 94 100 50 7 15 0 -19 -23 -6 -5 0 14 18
100 71 72 93 85 119 122 107 106 87 108 105 85 101 93 124 77 12 0 -7 -8 3 -19 -9 -6 1 28
95 92 94 88 63 101 101 124 124 90 106 79 84 79 53 50 83 91 105 50 9 0 -2 -4 -3 8 35
103 94 94 91 98 113 124 131 120 104 75 69 80 73 122 82 118 122 87 87 77 47 19 23 -4 0 4
97 87 101 115 122 124 116 110 103 94 73 96 99 57 51 65 79 101 83 80 82 31 38 34 14 6 3
100 97 125 127 123 126 111 101 100 97 98 108 105 88 81 64 72 69 42 48 48 67 65 71 57 49 29
89 103 115 130 125 126 99 64 65 78 101 114 122 119 79 90 84 56 65 83 73 74 68 80 89 69 55
87 96 106 116 126 117 96 72 53 66 71 90 108 105 105 94 67 89 92 84 78 68 50 48 74 94 86
97 106 116 129 123 102 97 78 66 80 87 78 50 46 51 66 62 64 72 84 81 77 77 70 55 67 86
113 125 133 135 94 114 93 63 80 95 90 96 56 44 11 21 64 56 62 84 67 59 70 85 95 89 69

GFSFLT2_con_3kmhel_183.txt.gz
Helicity
73 72 85 95 107 117 116 102 80 78 102 104 99 112 117 114 139 164 167 161 116 90 77 65 49 55 31
67 76 84 98 96 98 84 66 78 80 95 79 82 89 90 136 145 125 120 121 83 57 54 44 36 33 29
63 82 80 100 102 93 77 86 83 64 77 82 93 102 103 108 104 86 80 74 67 51 43 33 14 3 5
80 84 97 90 98 91 105 109 98 81 79 79 91 79 90 92 79 64 55 53 50 44 32 27 26 22 23
73 100 93 92 86 92 116 97 81 63 94 77 102 78 96 61 42 41 30 18 32 54 60 50 34 34 29
78 81 69 99 106 115 110 99 91 93 77 74 87 85 89 81 36 -6 3 9 41 26 18 13 7 5 7
99 103 114 120 124 122 118 126 111 106 103 95 98 91 98 112 34 3 7 11 5 -23 -43 -19 -25 -22 -13
133 118 121 118 128 126 144 135 116 97 128 138 94 101 88 151 66 45 22 -25 -31 -26 -9 -13 -13 -16 -9
115 118 109 99 103 129 119 116 109 96 118 118 79 62 69 102 53 70 33 30 6 2 -9 -9 -14 4 19
116 116 91 86 99 118 111 108 99 100 103 64 49 31 23 29 94 88 86 66 49 19 17 9 14 48 46
111 114 97 88 88 92 104 128 134 120 101 82 83 53 79 41 56 78 77 98 98 93 72 42 25 37 60
113 126 109 92 94 98 118 140 152 134 94 98 114 87 82 59 49 46 51 65 91 89 71 57 23 17 14
128 115 99 94 88 129 130 128 129 138 121 100 114 125 112 93 71 49 27 28 35 78 72 72 82 84 68
139 116 102 107 100 120 121 108 112 116 119 96 110 120 93 96 80 41 57 77 64 77 71 71 80 100 95
138 122 104 106 115 120 123 109 105 95 70 96 107 112 127 69 61 90 83 73 87 79 51 44 60 78 106
138 152 122 130 125 118 114 99 95 87 50 70 91 54 65 89 33 87 76 100 80 70 72 64 65 84 103
137 164 150 132 114 132 108 93 84 90 77 93 108 62 2 33 86 72 83 88 81 75 79 85 81 98 74

GFSFLT2_con_3kmhel_186.txt.gz
Helicity
88 91 114 108 107 107 92 89 96 130 124 110 116 127 125 126 119 107 92 109 121 93 61 58 73 51 47
79 91 95 93 88 96 94 92 100 93 83 80 115 100 103 105 106 108 122 118 94 72 59 54 44 49 32
66 83 83 94 97 101 95 99 86 50 46 61 90 88 83 97 95 110 111 99 85 71 44 32 21 35 30
74 83 88 87 104 111 123 117 109 89 43 70 72 86 94 94 106 119 110 86 57 44 56 40 35 29 16
75 92 93 110 105 109 122 101 110 83 108 79 114 114 114 97 110 87 78 42 26 38 10 18 15 13 9
81 97 91 107 123 129 122 118 103 88 106 83 113 103 112 118 67 40 33 16 8 1 -7 -19 -24 -14 -18
93 89 110 137 135 132 139 134 121 111 110 99 117 100 104 147 60 37 45 34 -7 -12 -12 -9 -7 -8 -20
113 117 121 121 140 145 140 123 110 93 124 126 106 100 91 150 50 23 25 43 19 15 10 3 -5 -11 -15
117 118 125 143 149 158 142 118 99 87 111 108 111 90 60 52 78 81 72 48 42 32 26 17 16 15 33
130 130 132 142 142 152 141 146 118 77 71 100 106 78 46 31 67 90 104 73 62 53 47 63 61 63 59
134 138 138 127 136 155 157 150 124 131 108 114 147 107 99 58 103 104 68 108 102 109 110 104 70 64 60
145 137 127 122 130 132 128 129 126 115 104 136 156 121 79 45 55 98 68 68 95 113 117 60 47 54 65
137 146 133 117 115 129 133 133 123 123 135 140 158 137 111 47 71 70 -4 42 58 70 58 71 70 73 62
138 141 140 125 116 123 121 114 117 134 130 139 146 153 89 107 87 4 55 61 75 80 58 68 72 79 90
141 123 112 125 118 100 117 154 144 129 121 115 146 151 138 118 52 44 51 95 97 80 57 47 67 88 96
156 133 112 124 123 108 141 166 150 123 99 108 118 101 96 95 55 -21 46 105 104 73 77 68 53 91 101
141 138 124 130 96 114 126 134 132 117 113 121 142 115 8 16 82 17 34 93 90 75 85 86 74 98 79

GFSFLT2_con_3kmhel_189.txt.gz
Helicity
134 122 117 109 104 101 95 100 104 113 107 115 123 134 128 109 101 87 87 84 92 80 72 75 61 43 48
89 93 96 87 83 95 95 99 105 98 101 106 113 120 109 103 84 75 86 95 91 80 79 56 46 30 21
77 77 74 80 89 90 90 109 104 103 104 96 98 85 75 83 96 102 98 91 84 80 54 68 65 60 45
53 52 62 69 78 77 107 117 136 140 91 79 63 45 63 85 102 103 101 88 81 57 49 51 49 35 23
41 58 68 82 88 96 114 131 131 107 142 111 122 109 111 93 110 90 89 81 66 52 51 48 28 10 5
41 55 70 84 99 113 118 129 130 114 155 117 111 103 115 145 90 82 79 105 102 56 50 23 9 10 8
50 58 74 96 106 112 131 142 157 143 142 137 99 96 97 150 85 85 92 68 69 47 39 25 17 16 11
90 91 87 92 131 146 150 142 133 117 145 189 120 99 114 146 65 80 92 68 58 44 31 29 27 22 17
117 102 106 141 156 174 158 156 149 140 119 170 112 92 80 102 75 72 80 51 60 76 59 41 34 34 50
127 130 143 149 151 162 159 163 158 157 134 144 109 90 68 68 105 89 108 57 66 76 80 73 91 91 57
117 126 136 133 129 140 165 186 192 212 147 164 190 145 167 127 113 99 61 71 77 81 62 83 87 73 65
127 134 134 131 121 131 153 164 176 169 148 168 206 168 162 133 106 96 70 61 80 61 70 41 40 50 53
140 130 123 126 125 149 151 138 140 138 155 175 207 187 175 138 121 59 25 39 47 56 52 65 85 84 59
135 124 117 121 137 158 157 133 126 136 144 149 164 186 155 135 120 29 65 77 94 74 71 76 84 99 94
136 120 98 107 118 141 153 143 153 132 123 139 136 142 144 125 105 93 29 83 114 79 63 56 69 98 102
128 119 127 133 132 134 155 151 126 115 119 136 137 120 94 93 93 106 73 46 84 59 76 55 40 87 96
131 136 161 155 131 140 133 128 119 117 121 134 152 160 92 104 109 24 73 87 59 57 74 102 80 93 73

GFSFLT2_con_3kmhel_192.txt.gz
Helicity
113 89 86 105 99 83 83 74 82 94 96 110 121 124 126 110 98 81 79 82 86 71 59 66 51 44 50
72 76 85 81 62 72 82 83 86 93 107 122 125 118 104 90 83 78 103 93 81 69 52 57 53 54 67
38 63 56 50 60 72 74 82 81 108 125 123 116 107 89 86 79 90 77 71 70 69 54 48 46 44 45
39 30 32 50 65 64 79 87 104 124 123 107 112 95 98 87 84 71 63 65 65 70 76 65 51 57 40
19 25 32 41 39 52 64 87 91 93 135 102 152 127 112 87 73 53 56 67 102 137 105 76 42 25 14
-0 2 9 27 45 54 71 67 91 103 115 116 123 118 121 132 56 64 71 84 127 139 88 49 37 39 32
-17 -5 15 42 65 78 86 103 114 128 145 135 139 118 108 130 61 85 117 138 137 89 40 39 41 40 38
22 32 46 61 89 97 109 121 115 109 129 186 139 128 107 141 86 145 185 151 97 68 58 38 33 36 37
79 82 88 94 117 141 123 126 119 124 117 151 136 114 103 86 116 132 109 97 88 75 59 32 45 50 72
83 94 92 100 118 134 132 124 121 116 81 154 135 123 78 63 110 95 94 72 64 64 60 40 51 88 53
79 88 101 110 117 113 112 129 111 125 112 142 201 167 199 181 155 136 98 112 113 86 61 53 46 46 27
76 96 108 114 112 107 108 127 147 126 123 131 189 160 167 158 153 143 115 105 102 88 66 45 40 34 26
91 113 112 105 94 114 133 140 139 125 124 150 163 159 160 151 148 134 105 108 79 51 71 67 72 64 53
108 112 109 111 110 116 124 133 146 133 132 124 133 144 142 136 128 133 136 133 128 92 60 74 92 92 94
134 132 120 122 115 106 134 163 153 144 134 128 139 141 142 124 121 117 120 120 132 82 48 52 73 100 104
137 135 140 139 126 127 162 166 151 133 133 134 137 137 122 69 88 107 133 134 131 77 36 17 42 83 94
138 130 143 150 133 147 145 142 145 145 139 143 173 174 105 99 108 22 104 140 115 99 73 41 35 73 64

GFSFLT2_con_3kmhel_195.txt.gz
Helicity
108 112 68 75 67 65 49 49 71 70 68 73 86 94 106 104 98 95 94 98 94 87 70 57 63 69 63
83 80 68 64 59 40 57 66 64 66 77 93 108 117 109 100 100 101 91 101 86 60 48 52 60 60 46
83 67 52 38 42 46 58 68 67 65 98 124 117 106 104 102 108 106 98 84 69 62 71 75 61 58 40
57 33 30 35 39 57 73 65 79 78 99 97 96 87 98 118 112 95 93 86 74 73 90 106 104 72 51
38 19 18 31 40 45 52 60 72 93 96 92 94 89 89 94 93 76 75 76 74 73 129 113 87 67 50
2 18 16 16 26 32 41 51 61 73 88 99 85 82 85 95 76 86 86 104 130 158 133 120 64 65 61
9 -8 5 22 25 29 46 47 59 85 87 87 75 77 80 90 83 92 123 216 173 145 133 108 74 64 47
-0 5 5 19 37 53 61 66 66 69 65 78 80 80 79 97 69 95 131 176 119 142 144 122 73 54 59
20 27 36 50 68 77 79 76 75 77 78 90 76 73 65 8 17 20 84 96 124 132 136 114 76 63 73
13 25 46 63 91 108 91 77 85 72 73 88 54 58 64 47 119 68 90 102 115 109 98 94 82 82 54
21 36 67 86 88 83 77 84 78 89 47 84 100 77 118 135 102 71 74 117 110 82 78 63 56 63 31
34 46 60 75 73 73 82 86 74 46 53 91 141 113 130 142 132 82 95 97 69 65 46 43 39 50 32
38 44 68 81 77 81 85 83 55 63 95 95 117 117 134 143 152 109 109 80 44 48 44 37 47 51 31
46 70 88 85 74 78 80 98 102 90 85 91 101 116 139 128 127 133 86 95 72 54 39 47 42 53 38
57 73 84 78 73 92 107 105 99 97 94 106 119 132 142 122 141 117 88 94 79 62 36 61 50 53 49
91 108 99 88 96 100 104 97 103 100 103 110 113 125 116 104 86 92 104 103 99 27 55 44 37 39 39
109 104 95 101 102 108 103 102 111 116 106 102 118 133 114 109 117 65 102 135 -12 21 98 110 48 82 37

GFSFLT2_con_3kmhel_201.txt.gz
Helicity
134 95 95 108 79 79 66 54 49 31 46 56 53 62 79 98 68 59 71 91 103 105 103 92 82 79 81
126 114 100 110 97 66 59 46 45 37 46 54 60 73 99 56 42 64 80 94 90 87 89 79 77 83 98
121 100 111 79 44 44 34 31 27 41 50 21 30 58 54 47 61 73 92 90 83 85 81 85 88 98 123
110 89 70 56 40 39 46 35 46 33 34 53 56 57 45 47 68 61 77 93 92 94 94 110 127 121 126
109 77 59 38 44 28 39 41 32 74 66 57 69 71 65 59 54 78 82 86 78 116 166 175 182 181 167
92 67 52 49 33 26 25 39 40 61 61 85 72 74 67 70 74 80 86 90 61 89 111 133 136 148 146
83 77 65 22 10 22 48 38 35 47 56 70 63 89 76 89 58 66 95 88 53 73 94 104 103 112 121
68 32 29 26 30 42 43 25 31 42 87 82 96 80 79 78 32 68 66 71 78 89 90 87 86 83 75
35 34 39 39 39 28 30 49 52 76 103 99 82 77 85 66 59 90 70 75 93 93 88 77 73 71 92
8 19 28 30 27 24 34 37 50 54 101 92 101 74 70 57 110 85 114 86 60 66 51 49 49 108 118
28 23 17 13 16 25 45 68 69 90 92 137 125 105 121 141 113 121 111 98 97 74 32 31 44 55 100
9 13 28 21 38 62 74 79 88 84 86 103 144 133 135 132 153 133 125 114 119 97 86 55 37 26 28
21 29 43 57 68 61 73 83 90 107 105 113 136 136 148 141 139 130 106 143 86 82 113 99 101 100 95
39 55 69 68 66 77 95 107 111 114 111 123 143 128 135 147 153 158 139 150 145 120 123 117 114 117 127
58 66 65 66 73 106 124 129 125 117 109 119 122 128 150 153 170 154 146 148 144 133 119 123 122 123 118
53 72 79 86 96 116 117 116 121 114 123 123 127 131 133 143 75 111 129 134 125 119 119 122 142 105 103
79 96 109 98 80 102 112 125 136 136 126 129 127 122 125 152 157 89 119 148 142 122 125 146 150 135 65